Regional Weather Roundup
Issued by NWS

Home | Current Version | Previous Version | Graphics & Text | Print | Product List | Glossary On
Versions: 1 2 3 4 5 6 7 8 9 10 11 12 13 14 15 16 17 18 19 20 21 22 23 24 25 26 27 28 29 30 31 32 33 34 35 36 37 38 39 40 41 42 43 44 45 46 47 48 49 50
532
ASUS43 KLOT 180012
RWRIL

ILLINOIS REGIONAL WEATHER ROUNDUP
NATIONAL WEATHER SERVICE CHICAGO/ROMEOVILLE IL
600 PM CST TUE JAN 17 2017

NOTE: "FAIR" INDICATES FEW OR NO CLOUDS BELOW 12,000 FEET WITH NO
SIGNIFICANT WEATHER AND/OR OBSTRUCTIONS TO VISIBILITY.

* THESE STATIONS ARE NOT UNDER NWS QUALITY CONTROL. THEY ALSO MAY NOT
  REPORT WEATHER SUCH AS PRECIPITATION OR FOG.

ILZ001-002-007-009-015-016-024-180100-
NORTHWEST ILLINOIS

CITY           SKY/WX    TMP DP  RH WIND       PRES   REMARKS
MOLINE         CLOUDY    36  33  89 W12       30.03R FOG     WCI  28
6HR MIN TEMP:  36; 6HR MAX TEMP:  37;

STERLING*      CLOUDY    35  34  96 W14       30.00R FOG     WCI  26
SAVANNA*       CLOUDY    35  32  89 W9        30.00R FOG     WCI  28
$$

ILZ003-004-008-010-011-017-018-180100-
NORTH CENTRAL ILLINOIS

CITY           SKY/WX    TMP DP  RH WIND       PRES   REMARKS
ROCKFORD       DRIZZLE   35  33  92 W9        29.99R FOG     WCI  28
6HR MIN TEMP:  35; 6HR MAX TEMP:  37; 6HR PCP: TRACE;

FREEPORT*      CLOUDY    33  33  99 W8        29.99R FOG     WCI  26
ROCHELLE*      CLOUDY    34  34  99 W10       29.99R FOG     WCI  26
DE KALB*       CLOUDY    34  34  98 W12       29.97R FOG     WCI  26
$$

ILZ005-006-012>014-019>023-180100-
NORTHEAST ILLINOIS

CITY           SKY/WX    TMP DP  RH WIND       PRES   REMARKS
CHICAGO-OHARE  CLOUDY    36  34  92 W12       29.95R FOG     WCI  28
6HR MIN TEMP:  36; 6HR MAX TEMP:  39;

CHICAGO-MIDWAY DRIZZLE   35  34  96 W10       29.96R FOG     WCI  27
6HR MIN TEMP:  35; 6HR MAX TEMP:  37; 6HR PCP: TRACE;

AURORA         CLOUDY    36  34  92 W13       29.97R FOG     WCI  27
6HR MIN TEMP:  36; 6HR MAX TEMP:  38;

LANSING*       CLOUDY    36  36 100 W14       29.97R WCI  27
JOLIET*        CLOUDY    37  36  97 W8        30.00R FOG     WCI  30
WAUKEGAN       LGT RAIN  35  34  96 W7        29.93R FOG     WCI  29
6HR MIN TEMP:  35; 6HR MAX TEMP:  39; 6HR PCP: TRACE;

DUPAGE AIRPORT CLOUDY    35  33  92 W12       29.95R FOG     WCI  27
6HR MIN TEMP:  35; 6HR MAX TEMP:  38;

KANKAKEE*      CLOUDY    36  35  98 W14G21    30.01R FOG     WCI  27
WHEELING       CLOUDY    36  34  92 W9        29.96R WCI  29
6HR MIN TEMP:  36; 6HR MAX TEMP:  39;

MORRIS*        CLOUDY    35  34  96 W12       29.99R FOG     WCI  27
ROMEOVILLE*    CLOUDY    35  35 100 W10G17    29.98R FOG     WCI  27
NORTHERLY ISL    N/A     37  34  89 W10         N/A  WCI  30
$$

LMZ740>746-180100-
SOUTHERN LAKE MICHIGAN

STATION/POSITION SKY/WX   TEMP    WIND        PRES    VSBY  WAVE
                          AIR SEA DIR/SP/G                  HT/PER
                          (F)     (DEG/KT/KT) (MB)    (MI)  (FT/S)
HARRISON CRIB              37     260/ 18/ 21   N/A
BURNHAM HARBOR             37     270/  9/ 15   N/A
CALUMET HARBOR             37     250/  9/ 16 1014.1R
BURNS HARBOR               36     240/ 14/ 17 1015.2R
$$

ILZ025>027-034>036-040-047-049-050-058-095>099-180100-
WEST-CENTRAL ILLINOIS

CITY           SKY/WX    TMP DP  RH WIND       PRES   REMARKS
QUINCY         CLOUDY    37  35  92 W8        30.10R WCI  31
GALESBURG*     CLOUDY    35  34  96 W17G23    30.06R WCI  24
MACOMB*        CLOUDY    36  35  99 W12       30.10R FOG     WCI  27
JACKSONVILLE*  CLOUDY    38  36  92 W14       30.09R WCI  30
PITTSFIELD*    CLOUDY    38  37  92 W10       30.11R WCI  32
$$

ILZ028>032-037-038-041>044-048-051>054-059>061-180100-
CENTRAL ILLINOIS

CITY           SKY/WX    TMP DP  RH WIND       PRES   REMARKS
PONTIAC        CLOUDY    36  36 100 W10       30.03R FOG     WCI  29
BLOOMINGTON    CLOUDY    36  33  89 W15G23    30.05R WCI  27
DECATUR        CLOUDY    39  37  92 W15G21    30.07R WCI  31
PEORIA         CLOUDY    36  34  92 W12       30.07R WCI  28
6HR MIN TEMP:  36; 6HR MAX TEMP:  38;

LACON*         CLOUDY    36  34  93 W7G17     30.04R WCI  30
LINCOLN*       CLOUDY    38  36  91 W7G16     30.08R WCI  33
SPRINGFIELD    CLOUDY    40  36  86 NW12      30.08R
6HR MIN TEMP:  40; 6HR MAX TEMP:  42;

TAYLORVILLE    CLOUDY    39  36  89 W15       30.09R WCI  30
6HR MIN TEMP:  39; 6HR MAX TEMP:  42;

$$

ILZ033-039-045-046-055>057-062-063-180100-
EAST-CENTRAL ILLINOIS

CITY           SKY/WX    TMP DP  RH WIND       PRES   REMARKS
CHAMPAIGN      CLOUDY    39  35  86 W18       30.05R WCI  30
RANTOUL*       CLOUDY    39  37  94 W16G25    30.05R WCI  30
MATTOON        CLOUDY    40  31  70 W12G21    30.06R
PARIS*         CLOUDY    40  40  99 W15       30.05R FOG
$$

ILZ079-100>102-180100-
SOUTHWEST ILLINOIS

CITY           SKY/WX    TMP DP  RH WIND       PRES   REMARKS
ALTON          CLOUDY    39  37  93 W14       30.13R WCI  31
BELLEVILLE     MOCLDY    43  39  86 W8        30.12R
CAHOKIA*       CLOUDY    43  36  76 W12       30.13R
SPARTA*        CLOUDY    43  38  80 W12       30.13R
$$

ILZ064>066-069>071-074>076-080>082-084>086-088>090-092>094-180100-
SOUTH-CENTRAL ILLINOIS

CITY           SKY/WX    TMP DP  RH WIND       PRES   REMARKS
CARBONDALE     CLOUDY    44  41  89 SW6       30.13R
6HR MIN TEMP:  43; 6HR MAX TEMP:  44;

CAIRO*         CLOUDY    44  40  84 W6        30.15S
EFFINGHAM*     CLOUDY    43  41  93 W15       30.11R
MARION         CLOUDY    45  43  93 W7        30.14R
MT. VERNON     CLOUDY    44  39  82 SW8       30.12R
CENTRALIA*     CLOUDY    45  40  85 W8        30.10R
SALEM*         CLOUDY    44  39  83 W12       30.10R
METROPOLIS*    CLOUDY    45  40  83 CALM      30.14S
$$

ILZ067-068-072-073-078-083-087-091-180100-
SOUTHEAST ILLINOIS

CITY           SKY/WX    TMP DP  RH WIND       PRES   REMARKS
LAWRENCEVILLE  CLOUDY    45  42  89 W12       30.09R
FLORA*         CLOUDY    46  40  81 W7        30.10R
FAIRFIELD*     CLOUDY    44  40  87 SW3       30.11R
HARRISBURG*    CLOUDY    44  41  88 W7        30.14R
ROBINSON*      CLOUDY    43  41  91 W16       30.08R
CARMI*         CLOUDY    43  41  92 W10       30.12R
$$

ABBREVIATIONS USED IN REMARKS
   TC - TEMPERATURE IN CELSIUS
  WCI - WIND CHILL INDEX
   HX - HEAT INDEX
  VSB - VISIBILITY
$$





USA.gov is the U.S. government's official web portal to all federal, state and local government web resources and services.